Content
SEND FEEDBACK

Daily
Averages
Monthly
Summary
United States of America

CAMP QUEZON, GUAM


Home > North America > United States > Guam
Elevation: 269 feet     Latitude: 13 28N     Longitude: 144 48E

WEATHER
 
SELECT A DAY
Number of Records: 213,899;   Date Range: 1/1/95 - 10/23/14
 
SHARE

PRINT THIS DATA

[ ← Previous Day ]
WEATHER ALMANAC - JANUARY 15, 2013
[ Next Day → ]
[ °C ]   °F
Weather ElementAverageHighLow
Temperature78.1 °F82.9 °F (10:54 am)71.1 °F (6:54 am)
Dewpoint69.9 °F71.1 °F (1:54 am)68 °F (6:54 pm)
Humidity76.5 %93 % (6:54 am)63 % (10:54 am)
Barometer29.87 in29.93 in (8:54 am)29.81 in (2:54 pm)
Wind Speed5.9 mph12.7 mph (3:54 pm)
Wind Gust21.9 mph (4:54 pm)
Weather ElementAverage
Visibility10 mi
Wind DirectionENE (73 °)

Weather ElementTotal
Precipitation---
Cooling Degree Days12 (Base 65)
Growing Degree Days27 (Base 50)
Averaged from 23 records on January 15, 2013
WEATHER CONDITIONS BREAKOUT
WIND DIRECTION BREAKOUT
WEATHER BY HOUR - JANUARY 15, 2013
[ °C ]   °F
Local TimeTemperatureDewpointHumidityBarometerVisibilityWind DirectionWind SpeedGust SpeedPrecipitationEventsConditions
1:54 AM75.9 °F71.1 °F85 %29.86 in10.0 miEast (90°)3.5 mphClear
2:54 AM75.9 °F71.1 °F85 %29.86 in10.0 miESE (120°)5.8 mphClear
3:54 AM75.0 °F71.1 °F87 %29.86 in10.0 miESE (110°)4.6 mphClear
4:54 AM73.9 °F71.1 °F91 %29.88 in10.0 miCalmClear
5:54 AM72.0 °F69.1 °F91 %29.90 in10.0 miCalmClear
6:54 AM71.1 °F69.1 °F93 %29.91 in10.0 miCalmClear
7:54 AM77.0 °F70.0 °F79 %29.92 in10.0 miCalmClear
8:54 AM80.1 °F70.0 °F71 %29.93 in10.0 miEast (100°)9.2 mphClear
9:54 AM81.0 °F70.0 °F69 %29.91 in10.0 miESE (120°)10.4 mphClear
10:54 AM82.9 °F69.1 °F63 %29.89 in10.0 miEast (100°)8.1 mphPartly Cloudy
11:54 AM82.9 °F70.0 °F65 %29.86 in10.0 miSE (130°)6.9 mphClear
12:54 PM82.9 °F69.1 °F63 %29.84 in10.0 miEast (100°)10.4 mphClear
1:54 PM82.0 °F69.1 °F65 %29.83 in10.0 miEast (100°)8.1 mphClear
2:54 PM82.9 °F70.0 °F65 %29.81 in10.0 miSE (130°)10.4 mphClear
3:54 PM82.0 °F70.0 °F67 %29.81 in10.0 miSE (130°)12.7 mphClear
4:54 PM81.0 °F70.0 °F69 %29.82 in10.0 miESE (120°)12.7 mph21.9 mphClear
5:54 PM80.1 °F69.1 °F69 %29.84 in10.0 miESE (120°)8.1 mphClear
6:54 PM78.1 °F68.0 °F71 %29.85 in10.0 miCalmClear
7:54 PM75.9 °F69.1 °F79 %29.88 in10.0 miNorth (10°)4.6 mphClear
8:54 PM75.9 °F69.1 °F79 %29.88 in10.0 miNNE (30°)4.6 mphClear
9:54 PM75.9 °F70.0 °F82 %29.88 in10.0 miNE (50°)5.8 mphPartly Cloudy
10:54 PM75.0 °F71.1 °F87 %29.88 in10.0 miNE (50°)4.6 mphClear
11:54 PM75.9 °F71.1 °F85 %29.87 in10.0 miENE (70°)5.8 mphClear
Hourly data recorded from PGUM, located miles away from Camp Quezon, Guam







STORIES FROM OUR PARTNERS